Location: Olda
(45.8833°N, 9.5500°E)
Time: 16:32:00
(UTC+00:00)

USA 234 - Pass Details

Date: 03 March 2021
Orbit: 1102 x 1105 km, 123.0° (Epoch: 08 April)

Event Time Altitude Azimuth Distance (km) Brightness Sun altitude
Exits shadow 17:52:35 - 60° (ENE) 3,432 5.3 -8.0°
Reaches altitude 10° 17:53:58 10° 66° (ENE) 2,965 5.0 -8.2°
Maximum altitude 17:59:46 33° 128° (SE) 1,760 4.0 -9.2°
Drops below altitude 10° 18:05:32 10° 191° (S) 2,953 5.6 -10.2°
Sets 18:08:17 0° 200° (SSW) 3,907 6.4 -10.7°
